Regional Weather Roundup
Issued by NWS

Home | Current Version | Previous Version | Graphics & Text | Print | Product List | Glossary On
Versions: 1 2 3 4 5 6 7 8 9 10 11 12 13 14 15 16 17 18 19 20 21 22 23 24 25 26 27 28
000
ASUS45 KBOU 181010
RWRCO

WEATHER ROUNDUP FOR COLORADO
NATIONAL WEATHER SERVICE DENVER/BOULDER CO
300 AM MST SAT NOV 18 2017

NOTE: "FAIR" INDICATES FEW OR NO CLOUDS BELOW 12000 FEET WITH NO
SIGNIFICANT WEATHER AND/OR OBSTRUCTIONS TO VISIBILITY.

COZ001>005-013-030-031-181100-
...NORTHWEST COLORADO...

CITY           SKY/WX    TMP DP  RH WIND       PRES   REMARKS
CRAIG          FAIR      16  11  80 SW5       30.28R WCI   9
HAYDEN         MOCLDY    21  18  86 W8        30.28R WCI  12
MEEKER         FAIR      17  12  80 MISG      30.28R
RABBIT EARS PA CLOUDY     9   5  85 MISG      30.07R
STEAMBOAT SPGS CLOUDY    19  15  85 W9        30.24R WCI   8
WALDEN         FAIR      14   7  73 W9        30.15R WCI   2
$$

COZ006>008-011-181100-
...WEST CENTRAL VALLEYS...

CITY           SKY/WX    TMP DP  RH WIND       PRES   REMARKS
GRAND JUNCTION FAIR      22  18  85 CALM      30.31R
MONTROSE       FAIR      27  21  78 E3        30.33R
EAGLE          FAIR      20  16  84 E9        30.28R WCI   9
RIFLE          FAIR      24  20  84 SW6       30.30R WCI  17
DELTA          FAIR      32  21  65 S7        30.30R WCI  26
NUCLA          FAIR      30  12  47 CALM      30.33R
$$

COZ017>023-064>068-181100-
...SOUTHWEST COLORADO...

CITY           SKY/WX    TMP DP  RH WIND       PRES   REMARKS
DURANGO        FAIR      32   6  33 NW22G29   30.14R WCI  19
CORTEZ         FAIR      29  16  58 NW9       30.26R WCI  20
PAGOSA SPRINGS FAIR      30   9  40 CALM      30.13R
TELLURIDE      NOT AVBL
WOLF CREEK PAS FAIR       7   1  78 NW6       30.13R WCI  -3
$$

COZ009-010-012-014-032>034-037-058>063-181100-
...CENTRAL COLORADO...

CITY           SKY/WX    TMP DP  RH WIND       PRES   REMARKS
ASPEN          FAIR      18  12  77 NW5       30.21R WCI  11
BUENA VISTA    FAIR      22   9  57 NW14G23   30.11R WCI   9
COPPER MTN     CLOUDY     9   3  78 MISG      30.04R
BERTHOUD PASS  HVY SNOW   1  -9  60 MISG      29.88R VSB<1/4
COTTONWOOD PAS FAIR      21   7  53 SW9G20    30.05R WCI  11
GUNNISON       FAIR      18  10  71 W5        30.22R WCI  11
KREMMLING      FLURRIES  27  14  59 W7        30.23R WCI  19
LEADVILLE      CLOUDY    12   4  70 NW18      30.09R WCI  -6
MONARCH PASS     N/A      5   1  85 MISG      30.11R
SALIDA         FAIR      27  13  56 NW12      30.19R WCI  17
SUNLIGHT       CLOUDY   N/A N/A N/A MISG      30.20S
WILKERSON PASS   N/A      9   3  78 N14G23    30.06R WCI  -8
$$

COZ069>075-181100-
...SAN LUIS VALLEY/SANGRE DE CRISTO MOUNTAINS...

CITY           SKY/WX    TMP DP  RH WIND       PRES   REMARKS
ALAMOSA        FAIR      28  10  46 NW14      30.12R WCI  17
DEL NORTE      FAIR      26   4  39 NW15G21   30.13R WCI  14
LA VETA PASS   MOCLDY    21  10  63 SW24G35     N/A  WCI   4
SAGUACHE       FAIR      27   9  46 NW16G29   30.11R WCI  14
$$

COZ035-036-038>040-181100-
...NORTHERN COLORADO FRONT RANGE...

CITY           SKY/WX    TMP DP  RH WIND       PRES   REMARKS
DENVER INTL AP FAIR      30  21  69 N20       30.09R WCI  17
DMNS CITY PARK   N/A     31  22  69 NW3       30.12R
AURORA         PTCLDY    27  23  85 N10       30.11R WCI  18
FRONT RANGE AP FAIR      32  26  80 N13G21    30.10R WCI  22
ERIE MUNI ARPT FAIR      32  20  62 N9        30.16R WCI  24
BOULDER MUN AP FAIR      32  21  64 N3        30.11R
CENTENNIAL     FAIR      29  23  78 N10       30.10R WCI  20
BROOMFIELD     FAIR      32  21  64 N12       30.11R WCI  23
FORT COLLINS   FAIR      30  20  66 N9        30.12R WCI  22
LONGMONT       FAIR      33  23  67 N6        30.12R WCI  27
$$

COZ041-046-047-076>085-087-088-181100-
...PIKES PEAK/PALMER DIVIDE AND SOUTHERN FOOTHILLS...

CITY           SKY/WX    TMP DP  RH WIND       PRES   REMARKS
COLO. SPRINGS  FAIR      31  16  54 N9        30.09R WCI  23
A. F. ACADEMY  FAIR      23  16  73 N7        30.06R WCI  15
SCHRIEVER AFB  FAIR      30  13  49 N14G23    30.08R WCI  19
CHEYENNE MTN   FAIR      29   9  44 NW22G32   30.00R WCI  15
ELLICOTT       NOT AVBL
FALCON         FAIR      26  16  66 N17G25    30.08R WCI  12
FORT CARSON    FAIR      34  12  41 NW16G30   30.06R WCI  23
LIMON          FAIR      29  25  85 N28G38    30.05R WCI  14
MONUMENT HILL  MOCLDY    23  21  93 N18G25    30.09R WCI   9
CANON CITY     FAIR      37  18  44 W13G23    30.09R
WALSENBURG     CLOUDY    34  34 100 CALM      30.05R
TRINIDAD       LGT SNOW  33  32  96 CALM      30.04R FOG
$$

COZ042>045-048>051-090-091-181100-
...NORTHEAST COLORADO...

CITY           SKY/WX    TMP DP  RH WIND       PRES   REMARKS
GREELEY ARPT   FAIR      31  24  75 NW12      30.12R WCI  22
AKRON          CLOUDY    33  24  69 NW18      30.03R WCI  22
BURLINGTON     FAIR      37  31  78 NW23G41   29.96R
WRAY           NOT AVBL
YUMA           CLOUDY    34  28  80 NW23G29   30.00R WCI  22
STERLING       FAIR      36  28  75 N25       30.03R
HOLYOKE        FAIR      41  32  70 NW22G30   29.98R
FORT MORGAN    CLOUDY    34  21  60 NW22G28   30.09R WCI  22
$$

COZ086-089-092>099-181100-
...SOUTHEAST COLORADO...

CITY           SKY/WX    TMP DP  RH WIND       PRES   REMARKS
PUEBLO         CLOUDY    39  36  89 N6        30.07R
LA JUNTA       CLOUDY    41  32  70 N20       30.03R
LAMAR          CLOUDY    44  28  53 N17G33    29.98R
SPRINGFIELD      N/A     32  32 100 N18       29.98R WCI  20
$$




USA.gov is the U.S. government's official web portal to all federal, state and local government web resources and services.